| time (UTC) | temp F | wind direction | speed MPH | gust MPH | rain 1hr in | rain 24hr in | rain mn in | humidity % | barometer mb |
| 20260505021645 | 69 | 176 | 0.0 | 0.0 | 0.00 | 0.00 | 0.00 | 47 | 1012.4 |
| 20260505021143 | 68 | 149 | 0.0 | 2.0 | 0.00 | 0.00 | 0.00 | 47 | 1012.4 |
| 20260505020638 | 68 | 172 | 1.0 | 1.0 | 0.00 | 0.00 | 0.00 | 48 | 1012.4 |
| 20260505020134 | 68 | 148 | 0.0 | 0.0 | 0.00 | 0.00 | 0.00 | 48 | 1012.6 |
| 20260505015631 | 69 | 158 | 0.0 | 0.0 | 0.00 | 0.00 | 0.00 | 47 | 1012.5 |
| 20260505015128 | 69 | 155 | 0.0 | 0.0 | 0.00 | 0.00 | 0.00 | 47 | 1012.5 |
| 20260505014625 | 69 | 157 | 0.0 | 0.0 | 0.00 | 0.00 | 0.00 | 46 | 1012.2 |
| 20260505014122 | 70 | 152 | 0.0 | 0.0 | 0.00 | 0.00 | 0.00 | 47 | 1012.3 |
| 20260505013619 | 70 | 122 | 0.0 | 0.0 | 0.00 | 0.00 | 0.00 | 46 | 1012.1 |
| 20260505013116 | 70 | 145 | 1.0 | 2.0 | 0.00 | 0.00 | 0.00 | 45 | 1012.1 |
| 20260505012615 | 70 | 122 | 0.0 | 1.0 | 0.00 | 0.00 | 0.00 | 45 | 1012.1 |
| 20260505012111 | 71 | 122 | 0.0 | 1.0 | 0.00 | 0.00 | 0.00 | 45 | 1012.2 |
| 20260505011607 | 71 | 132 | 0.0 | 0.0 | 0.00 | 0.00 | 0.00 | 45 | 1011.9 |
| 20260505011104 | 71 | 154 | 0.0 | 2.0 | 0.00 | 0.00 | 0.00 | 45 | 1011.7 |
| 20260505010559 | 71 | 149 | 0.0 | 3.0 | 0.00 | 0.00 | 0.00 | 45 | 1011.8 |
| 20260505010056 | 71 | 141 | 0.0 | 0.0 | 0.00 | 0.00 | 0.00 | 45 | 1012.1 |
| 20260505005552 | 71 | 115 | 0.0 | 1.0 | 0.00 | 0.00 | 0.00 | 45 | 1011.8 |
| 20260505005050 | 72 | 154 | 0.0 | 0.0 | 0.00 | 0.00 | 0.00 | 44 | 1011.7 |
| 20260505004546 | 72 | 147 | 0.0 | 2.0 | 0.00 | 0.00 | 0.00 | 45 | 1011.9 |
| 20260505004043 | 72 | 123 | 0.0 | 0.0 | 0.00 | 0.00 | 0.00 | 44 | 1011.6 |
| 20260505003540 | 72 | 144 | 0.0 | 1.0 | 0.00 | 0.00 | 0.00 | 44 | 1011.7 |
| 20260505003038 | 73 | 148 | 0.0 | 1.0 | 0.00 | 0.00 | 0.00 | 43 | 1011.7 |
| 20260505002538 | 73 | 133 | 0.0 | 0.0 | 0.00 | 0.00 | 0.00 | 42 | 1011.6 |
| 20260505002038 | 73 | 155 | 0.0 | 3.0 | 0.00 | 0.00 | 0.00 | 41 | 1011.7 |
| 20260505001534 | 74 | 133 | 0.0 | 1.0 | 0.00 | 0.00 | 0.00 | 41 | 1011.5 |
| 20260505001031 | 74 | 200 | 1.0 | 2.0 | 0.00 | 0.00 | 0.00 | 41 | 1011.6 |
| 20260505000529 | 74 | 315 | 1.0 | 2.0 | 0.00 | 0.00 | 0.00 | 40 | 1011.7 |
| 20260505000026 | 74 | 160 | 0.0 | 0.0 | 0.00 | 0.00 | 0.00 | 40 | 1011.6 |
| 20260504235523 | 74 | 173 | 2.0 | 3.0 | 0.00 | 0.00 | 0.00 | 39 | 1011.5 |
| 20260504235019 | 74 | 355 | 0.0 | 2.0 | 0.00 | 0.00 | 0.00 | 39 | 1011.4 |
| 20260504234517 | 74 | 232 | 1.0 | 3.0 | 0.00 | 0.00 | 0.00 | 39 | 1011.3 |
| 20260504234014 | 75 | 159 | 1.0 | 1.0 | 0.00 | 0.00 | 0.00 | 39 | 1011.5 |
| 20260504233509 | 75 | 147 | 1.0 | 3.0 | 0.00 | 0.00 | 0.00 | 38 | 1011.5 |
| 20260504233006 | 75 | 103 | 2.0 | 3.0 | 0.00 | 0.00 | 0.00 | 38 | 1011.3 |
| 20260504232503 | 75 | 224 | 2.0 | 4.0 | 0.00 | 0.00 | 0.00 | 37 | 1011.6 |
| 20260504232001 | 75 | 159 | 0.0 | 3.0 | 0.00 | 0.00 | 0.00 | 38 | 1011.3 |
| 20260504231456 | 75 | 265 | 2.0 | 3.0 | 0.00 | 0.00 | 0.00 | 37 | 1011.2 |
| 20260504230953 | 76 | 143 | 1.0 | 4.0 | 0.00 | 0.00 | 0.00 | 36 | 1011.2 |
| 20260504230450 | 76 | 150 | 1.0 | 8.0 | 0.00 | 0.00 | 0.00 | 36 | 1011.5 |
| 20260504225949 | 76 | 299 | 2.0 | 6.0 | 0.00 | 0.00 | 0.00 | 36 | 1011.2 |
| 20260504225445 | 76 | 294 | 1.0 | 4.0 | 0.00 | 0.00 | 0.00 | 36 | 1011.2 |
| 20260504224942 | 76 | 56 | 1.0 | 2.0 | 0.00 | 0.00 | 0.00 | 36 | 1011.1 |
| 20260504224438 | 76 | 139 | 1.0 | 3.0 | 0.00 | 0.00 | 0.00 | 36 | 1011.3 |
| 20260504223936 | 76 | 252 | 1.0 | 4.0 | 0.00 | 0.00 | 0.00 | 35 | 1011.3 |
| 20260504223432 | 77 | 283 | 2.0 | 4.0 | 0.00 | 0.00 | 0.00 | 35 | 1011.4 |
| 20260504222927 | 77 | 206 | 3.0 | 6.0 | 0.00 | 0.00 | 0.00 | 34 | 1011.3 |
| 20260504222425 | 78 | 217 | 0.0 | 6.0 | 0.00 | 0.00 | 0.00 | 34 | 1011.0 |
| 20260504221923 | 77 | 226 | 1.0 | 3.0 | 0.00 | 0.00 | 0.00 | 34 | 1011.4 |
| 20260504221419 | 77 | 114 | 0.0 | 6.0 | 0.00 | 0.00 | 0.00 | 34 | 1011.4 |
| 20260504220917 | 78 | 261 | 3.0 | 4.0 | 0.00 | 0.00 | 0.00 | 33 | 1011.2 |
| 20260504220413 | 78 | 240 | 3.0 | 4.0 | 0.00 | 0.00 | 0.00 | 33 | 1011.2 |
| 20260504215910 | 78 | 96 | 1.0 | 4.0 | 0.00 | 0.00 | 0.00 | 33 | 1011.2 |
| 20260504215407 | 78 | 30 | 3.0 | 10.0 | 0.00 | 0.00 | 0.00 | 32 | 1011.2 |
| 20260504214903 | 78 | 130 | 1.0 | 7.0 | 0.00 | 0.00 | 0.00 | 32 | 1011.2 |
| 20260504214400 | 78 | 114 | 2.0 | 7.0 | 0.00 | 0.00 | 0.00 | 32 | 1011.3 |
| 20260504213857 | 78 | 286 | 2.0 | 8.0 | 0.00 | 0.00 | 0.00 | 33 | 1011.5 |
| 20260504213352 | 78 | 82 | 2.0 | 15.0 | 0.00 | 0.00 | 0.00 | 33 | 1011.4 |
| 20260504212850 | 79 | 66 | 2.0 | 6.0 | 0.00 | 0.00 | 0.00 | 32 | 1011.3 |
| 20260504212346 | 78 | 16 | 2.0 | 9.0 | 0.00 | 0.00 | 0.00 | 32 | 1011.3 |
| 20260504211844 | 79 | 337 | 6.0 | 8.0 | 0.00 | 0.00 | 0.00 | 31 | 1011.5 |
| 20260504211340 | 78 | 44 | 1.0 | 3.0 | 0.00 | 0.00 | 0.00 | 31 | 1011.4 |
| 20260504210838 | 79 | 72 | 1.0 | 4.0 | 0.00 | 0.00 | 0.00 | 31 | 1011.2 |
| 20260504210334 | 79 | 177 | 2.0 | 8.0 | 0.00 | 0.00 | 0.00 | 31 | 1011.3 |
| 20260504205831 | 79 | 98 | 3.0 | 6.0 | 0.00 | 0.00 | 0.00 | 31 | 1011.2 |
| 20260504205329 | 79 | 142 | 2.0 | 8.0 | 0.00 | 0.00 | 0.00 | 31 | 1011.4 |
| 20260504204827 | 79 | 132 | 1.0 | 3.0 | 0.00 | 0.00 | 0.00 | 31 | 1011.4 |
| 20260504204326 | 79 | 62 | 2.0 | 6.0 | 0.00 | 0.00 | 0.00 | 31 | 1011.2 |
| 20260504203824 | 79 | 126 | 0.0 | 3.0 | 0.00 | 0.00 | 0.00 | 31 | 1011.3 |
| 20260504203321 | 79 | 205 | 1.0 | 3.0 | 0.00 | 0.00 | 0.00 | 30 | 1011.4 |
| 20260504202816 | 78 | 290 | 1.0 | 8.0 | 0.00 | 0.00 | 0.00 | 31 | 1011.3 |
| 20260504202314 | 79 | 87 | 2.0 | 10.0 | 0.00 | 0.00 | 0.00 | 31 | 1011.4 |
| 20260504201810 | 78 | 333 | 3.0 | 6.0 | 0.00 | 0.00 | 0.00 | 30 | 1011.5 |
| 20260504201308 | 79 | 20 | 1.0 | 6.0 | 0.00 | 0.00 | 0.00 | 30 | 1011.7 |
| 20260504200806 | 79 | 242 | 4.0 | 6.0 | 0.00 | 0.00 | 0.00 | 30 | 1011.7 |
| 20260504200302 | 79 | 350 | 2.0 | 6.0 | 0.00 | 0.00 | 0.00 | 30 | 1011.7 |
| 20260504195758 | 78 | 90 | 1.0 | 4.0 | 0.00 | 0.00 | 0.00 | 31 | 1011.9 |
| 20260504195254 | 78 | 310 | 4.0 | 8.0 | 0.00 | 0.00 | 0.00 | 31 | 1011.7 |
| 20260504194751 | 78 | 172 | 1.0 | 6.0 | 0.00 | 0.00 | 0.00 | 31 | 1011.8 |
| 20260504194247 | 78 | 84 | 1.0 | 6.0 | 0.00 | 0.00 | 0.00 | 31 | 1011.8 |
| 20260504193743 | 78 | 177 | 2.0 | 3.0 | 0.00 | 0.00 | 0.00 | 32 | 1012.1 |
| 20260504193241 | 78 | 89 | 2.0 | 10.0 | 0.00 | 0.00 | 0.00 | 31 | 1012.2 |
| 20260504192739 | 78 | 182 | 3.0 | 6.0 | 0.00 | 0.00 | 0.00 | 31 | 1012.4 |
| 20260504192237 | 78 | 29 | 3.0 | 8.0 | 0.00 | 0.00 | 0.00 | 31 | 1012.4 |
| 20260504191736 | 78 | 225 | 0.0 | 2.0 | 0.00 | 0.00 | 0.00 | 32 | 1012.4 |
| 20260504191232 | 78 | 98 | 2.0 | 3.0 | 0.00 | 0.00 | 0.00 | 32 | 1012.7 |
| 20260504190727 | 77 | 266 | 2.0 | 4.0 | 0.00 | 0.00 | 0.00 | 31 | 1012.7 |
| 20260504190224 | 77 | 104 | 1.0 | 3.0 | 0.00 | 0.00 | 0.00 | 32 | 1013.0 |
| 20260504185720 | 78 | 190 | 2.0 | 4.0 | 0.00 | 0.00 | 0.00 | 31 | 1012.6 |
| 20260504185218 | 77 | 72 | 2.0 | 3.0 | 0.00 | 0.00 | 0.00 | 31 | 1012.8 |
| 20260504184713 | 76 | 176 | 3.0 | 4.0 | 0.00 | 0.00 | 0.00 | 33 | 1013.0 |
| 20260504184209 | 77 | 86 | 3.0 | 7.0 | 0.00 | 0.00 | 0.00 | 31 | 1013.0 |
| 20260504183705 | 76 | 98 | 2.0 | 4.0 | 0.00 | 0.00 | 0.00 | 32 | 1013.4 |
| 20260504183203 | 76 | 261 | 1.0 | 8.0 | 0.00 | 0.00 | 0.00 | 32 | 1013.4 |
| 20260504182701 | 76 | 238 | 3.0 | 7.0 | 0.00 | 0.00 | 0.00 | 32 | 1013.4 |
| 20260504182158 | 76 | 210 | 1.0 | 4.0 | 0.00 | 0.00 | 0.00 | 33 | 1013.4 |
| 20260504181655 | 76 | 225 | 5.0 | 6.0 | 0.00 | 0.00 | 0.00 | 32 | 1013.5 |
| 20260504181153 | 75 | 76 | 6.0 | 9.0 | 0.00 | 0.00 | 0.00 | 33 | 1013.5 |
| 20260504180652 | 75 | 296 | 4.0 | 7.0 | 0.00 | 0.00 | 0.00 | 33 | 1013.7 |
| 20260504180150 | 75 | 162 | 4.0 | 8.0 | 0.00 | 0.00 | 0.00 | 33 | 1013.6 |
| 20260504175647 | 75 | 148 | 0.0 | 2.0 | 0.00 | 0.00 | 0.00 | 34 | 1013.8 |
| 20260504175143 | 76 | 266 | 3.0 | 8.0 | 0.00 | 0.00 | 0.00 | 33 | 1013.8 |
| 20260504174642 | 75 | 196 | 2.0 | 4.0 | 0.00 | 0.00 | 0.00 | 33 | 1014.0 |
| 20260504174138 | 75 | 201 | 1.0 | 2.0 | 0.00 | 0.00 | 0.00 | 34 | 1013.9 |
| 20260504173635 | 75 | 156 | 2.0 | 7.0 | 0.00 | 0.00 | 0.00 | 35 | 1014.1 |
| 20260504173132 | 75 | 204 | 2.0 | 3.0 | 0.00 | 0.00 | 0.00 | 34 | 1014.1 |
| 20260504172629 | 74 | 165 | 2.0 | 3.0 | 0.00 | 0.00 | 0.00 | 36 | 1014.2 |
| 20260504172125 | 74 | 91 | 2.0 | 4.0 | 0.00 | 0.00 | 0.00 | 34 | 1014.2 |
| 20260504171621 | 73 | 96 | 2.0 | 7.0 | 0.00 | 0.00 | 0.00 | 35 | 1014.4 |
| 20260504171119 | 73 | 66 | 1.0 | 8.0 | 0.00 | 0.00 | 0.00 | 36 | 1014.6 |
| 20260504170615 | 73 | 156 | 2.0 | 4.0 | 0.00 | 0.00 | 0.00 | 35 | 1014.4 |
| 20260504170113 | 73 | 229 | 2.0 | 4.0 | 0.00 | 0.00 | 0.00 | 35 | 1014.4 |
| 20260504150958 | 70 | 101 | 0.0 | 1.0 | 0.00 | 0.00 | 0.00 | 38 | 1015.6 |
| 20260504150455 | 70 | 227 | 3.0 | 4.0 | 0.00 | 0.00 | 0.00 | 39 | 1015.5 |
| 20260504140916 | 66 | 204 | 1.0 | 1.0 | 0.00 | 0.00 | 0.00 | 43 | 1016.1 |
| 20260504140412 | 65 | 110 | 0.0 | 0.0 | 0.00 | 0.00 | 0.00 | 43 | 1015.9 |
| 20260504130337 | 59 | 116 | 1.0 | 3.0 | 0.00 | 0.00 | 0.00 | 51 | 1016.7 |
| 20260504120300 | 55 | 272 | 2.0 | 2.0 | 0.00 | 0.00 | 0.00 | 57 | 1016.8 |
| 20260504110224 | 52 | 139 | 0.0 | 1.0 | 0.00 | 0.00 | 0.00 | 60 | 1017.1 |
| 20260504100148 | 53 | 153 | 0.0 | 0.0 | 0.00 | 0.00 | 0.00 | 60 | 1016.9 |
| 20260504090110 | 53 | 4 | 2.0 | 2.0 | 0.00 | 0.00 | 0.00 | 57 | 1016.9 |
| 20260504081541 | 53 | 152 | 0.0 | 0.0 | 0.00 | 0.00 | 0.00 | 61 | 1017.2 |
| 20260504081036 | 53 | 135 | 0.0 | 1.0 | 0.00 | 0.00 | 0.00 | 61 | 1017.2 |
| 20260504080533 | 53 | 156 | 0.0 | 1.0 | 0.00 | 0.00 | 0.00 | 62 | 1017.1 |
| 20260504050340 | 51 | 160 | 0.0 | 0.0 | 0.00 | 0.00 | 0.00 | 60 | 1017.5 |
| 20260504045837 | 51 | 161 | 0.0 | 0.0 | 0.00 | 0.00 | 0.00 | 60 | 1017.5 |
| 20260504045332 | 51 | 160 | 0.0 | 0.0 | 0.00 | 0.00 | 0.00 | 60 | 1017.5 |
| 20260504044829 | 51 | 160 | 0.0 | 0.0 | 0.00 | 0.00 | 0.00 | 60 | 1017.6 |
| 20260504044327 | 51 | 165 | 0.0 | 0.0 | 0.00 | 0.00 | 0.00 | 60 | 1017.6 |
| 20260504043824 | 51 | 162 | 0.0 | 0.0 | 0.00 | 0.00 | 0.00 | 59 | 1017.5 |
| 20260504043321 | 51 | 156 | 0.0 | 0.0 | 0.00 | 0.00 | 0.00 | 59 | 1017.4 |
| 20260504042818 | 51 | 153 | 0.0 | 0.0 | 0.00 | 0.00 | 0.00 | 59 | 1017.3 |
| 20260504042314 | 51 | 158 | 0.0 | 0.0 | 0.00 | 0.00 | 0.00 | 59 | 1017.4 |
| 20260504041811 | 50 | 159 | 0.0 | 0.0 | 0.00 | 0.00 | 0.00 | 59 | 1017.5 |
| 20260504041307 | 51 | 152 | 0.0 | 0.0 | 0.00 | 0.00 | 0.00 | 59 | 1017.2 |
| 20260504040803 | 51 | 144 | 0.0 | 0.0 | 0.00 | 0.00 | 0.00 | 58 | 1017.6 |
| 20260504040301 | 50 | 153 | 0.0 | 0.0 | 0.00 | 0.00 | 0.00 | 58 | 1017.4 |
| 20260504035757 | 51 | 154 | 0.0 | 0.0 | 0.00 | 0.00 | 0.00 | 58 | 1017.6 |
| 20260504035254 | 51 | 157 | 0.0 | 0.0 | 0.00 | 0.00 | 0.00 | 57 | 1017.6 |
| 20260504034751 | 51 | 160 | 0.0 | 0.0 | 0.00 | 0.00 | 0.00 | 56 | 1017.5 |
| 20260504034249 | 52 | 160 | 0.0 | 0.0 | 0.00 | 0.00 | 0.00 | 55 | 1017.4 |
| 20260504033746 | 52 | 157 | 0.0 | 0.0 | 0.00 | 0.00 | 0.00 | 54 | 1017.4 |
| 20260504033244 | 51 | 167 | 0.0 | 0.0 | 0.00 | 0.00 | 0.00 | 54 | 1017.3 |
| 20260504032740 | 52 | 153 | 0.0 | 0.0 | 0.00 | 0.00 | 0.00 | 54 | 1017.3 |
| 20260504032237 | 52 | 143 | 0.0 | 0.0 | 0.00 | 0.00 | 0.00 | 54 | 1017.1 |
| 20260504031734 | 51 | 143 | 0.0 | 0.0 | 0.00 | 0.00 | 0.00 | 54 | 1017.3 |
| 20260504031232 | 52 | 157 | 0.0 | 0.0 | 0.00 | 0.00 | 0.00 | 52 | 1017.4 |
| 20260504030727 | 52 | 157 | 0.0 | 0.0 | 0.00 | 0.00 | 0.00 | 53 | 1017.2 |
| 20260504030225 | 52 | 158 | 0.0 | 0.0 | 0.00 | 0.00 | 0.00 | 53 | 1017.3 |
| 20260504025721 | 53 | 159 | 0.0 | 0.0 | 0.00 | 0.00 | 0.00 | 53 | 1017.1 |
| 20260504025218 | 53 | 165 | 0.0 | 0.0 | 0.00 | 0.00 | 0.00 | 53 | 1017.1 |
| 20260504024715 | 53 | 167 | 0.0 | 0.0 | 0.00 | 0.00 | 0.00 | 52 | 1017.0 |
| 20260504024211 | 53 | 162 | 0.0 | 0.0 | 0.00 | 0.00 | 0.00 | 51 | 1016.9 |
| 20260504023708 | 53 | 157 | 0.0 | 0.0 | 0.00 | 0.00 | 0.00 | 51 | 1017.1 |
| 20260504023204 | 53 | 174 | 0.0 | 0.0 | 0.00 | 0.00 | 0.00 | 51 | 1017.2 |
| 20260504022701 | 53 | 158 | 0.0 | 0.0 | 0.00 | 0.00 | 0.00 | 51 | 1017.0 |
| 20260504022156 | 53 | 166 | 0.0 | 0.0 | 0.00 | 0.00 | 0.00 | 50 | 1017.1 |